GW0554 Weather Reports


time (UTC)temp
C
wind
direction
speed
KPH
gust
KPH
rain 1hr
cm
rain 24hr
cm
rain mn
cm
humidity
%
barometer
mb
20260508152028 18 309 1.6 1.6 0.00 0.23 0.23 99 1016.4
20260508151526 18 309 1.6 1.6 0.18 0.23 0.23 99 1016.6
20260508151022 18 309 0.0 0.0 0.61 0.23 0.23 99 1016.4
20260508150520 18 305 0.0 1.6 0.43 0.20 0.20 99 1016.7
20260508150015 18 293 0.0 0.0 0.30 0.13 0.13 99 1016.2
20260508145512 18 260 1.6 1.6 0.66 0.13 0.13 99 1016.7
20260508145008 18 317 0.0 0.0 0.61 0.10 0.10 99 1016.6
20260508144506 18 342 1.6 1.6 0.13 0.03 0.03 97 1016.8
20260508144003 18 269 0.0 0.0 0.00 0.00 0.00 96 1016.6
20260508143501 18 315 0.0 1.6 0.00 0.00 0.00 95 1016.7
20260508142957 18 324 1.6 1.6 0.00 0.00 0.00 95 1016.5
20260508142454 19 264 1.6 1.6 0.00 0.00 0.00 96 1016.8
20260508141950 19 198 3.2 3.2 0.00 0.00 0.00 94 1016.9
20260508141447 19 286 0.0 0.0 0.00 0.00 0.00 95 1016.9
20260508140945 19 279 0.0 1.6 0.00 0.00 0.00 95 1016.9
20260508140442 18 328 0.0 1.6 0.00 0.00 0.00 96 1016.6
20260508135937 18 326 1.6 3.2 0.00 0.00 0.00 96 1016.9
20260508135434 18 311 0.0 1.6 0.00 0.00 0.00 98 1016.4
20260508134931 18 333 0.0 1.6 0.00 0.00 0.00 98 1016.5
20260508134427 18 327 0.0 1.6 0.00 0.00 0.00 98 1016.8
20260508133924 17 298 0.0 0.0 0.00 0.00 0.00 98 1016.9
20260508133422 17 222 3.2 3.2 0.00 0.00 0.00 98 1017.0
20260508132918 17 301 0.0 0.0 0.00 0.00 0.00 99 1017.0
20260508132416 17 321 1.6 1.6 0.00 0.00 0.00 98 1017.0
20260508131913 17 321 0.0 1.6 0.00 0.00 0.00 99 1017.2
20260508131408 17 342 4.8 4.8 0.00 0.00 0.00 99 1017.3
20260508130905 17 346 1.6 1.6 0.00 0.00 0.00 99 1017.2
20260508130402 17 280 0.0 0.0 0.00 0.00 0.00 99 1016.7
20260508125858 17 292 0.0 1.6 0.00 0.00 0.00 99 1016.9
20260508125354 17 218 1.6 1.6 0.00 0.00 0.00 99 1016.9
20260508124852 17 210 0.0 1.6 0.00 0.00 0.00 99 1016.9
20260508124349 17 336 0.0 0.0 0.00 0.00 0.00 99 1016.8
20260508123847 17 273 0.0 0.0 0.00 0.00 0.00 99 1017.2
20260508123346 17 275 1.6 1.6 0.00 0.00 0.00 99 1017.1
20260508122842 17 337 0.0 0.0 0.00 0.00 0.00 99 1017.2
20260508122338 17 307 0.0 1.6 0.00 0.00 0.00 99 1017.1
20260508121836 17 322 0.0 0.0 0.00 0.00 0.00 99 1017.3
20260508121334 17 322 0.0 1.6 0.00 0.00 0.00 99 1017.3
20260508120831 17 304 0.0 0.0 0.00 0.00 0.00 99 1017.3
20260508120329 17 332 1.6 1.6 0.00 0.00 0.00 99 1017.5
20260508115826 17 349 0.0 0.0 0.00 0.00 0.00 99 1017.4
20260508115324 17 349 0.0 0.0 0.00 0.00 0.00 99 1017.1
20260508114820 17 344 1.6 3.2 0.00 0.00 0.00 99 1017.1
20260508114317 17 328 1.6 3.2 0.00 0.00 0.00 99 1017.1
20260508113814 17 289 0.0 1.6 0.00 0.00 0.00 99 1016.9
20260508113312 17 311 0.0 0.0 0.00 0.00 0.00 99 1016.7
20260508112808 17 327 4.8 4.8 0.00 0.00 0.00 99 1016.9
20260508112307 17 332 1.6 1.6 0.00 0.00 0.00 99 1016.9
20260508111801 17 4 0.0 0.0 0.00 0.00 0.00 99 1017.1
20260508111259 17 4 0.0 1.6 0.00 0.00 0.00 99 1017.3
20260508110756 17 346 3.2 3.2 0.00 0.00 0.00 99 1016.8
20260508110254 17 349 1.6 3.2 0.00 0.00 0.00 99 1016.8
20260508105753 17 346 4.8 4.8 0.00 0.00 0.00 99 1016.7
20260508105250 17 17 3.2 3.2 0.00 0.00 0.00 99 1016.6
20260508104747 17 342 4.8 4.8 0.00 0.00 0.00 99 1016.4
20260508104244 17 312 3.2 3.2 0.00 0.00 0.00 99 1016.5
20260508103742 17 352 3.2 3.2 0.00 0.00 0.00 99 1016.3
20260508103238 17 323 1.6 1.6 0.00 0.00 0.00 99 1016.3
20260508102735 17 343 3.2 3.2 0.00 0.00 0.00 99 1015.8
20260508102234 17 306 6.4 9.7 0.00 0.00 0.00 99 1015.3
20260508101730 17 303 0.0 0.0 0.00 0.00 0.00 99 1015.3
20260508101228 17 281 0.0 0.0 0.00 0.00 0.00 99 1015.4
20260508100726 17 295 0.0 1.6 0.00 0.00 0.00 99 1015.5
20260508100224 17 323 0.0 0.0 0.00 0.00 0.00 99 1015.8
20260508095719 17 327 1.6 1.6 0.00 0.00 0.00 99 1016.0
20260508095217 17 323 0.0 0.0 0.00 0.00 0.00 99 1015.7
20260508094714 16 312 1.6 3.2 0.00 0.00 0.00 99 1015.7
20260508094211 17 356 1.6 1.6 0.00 0.00 0.00 99 1015.7
20260508093707 16 328 3.2 3.2 0.00 0.00 0.00 99 1015.9
20260508093206 17 332 4.8 8.0 0.00 0.00 0.00 99 1015.9
20260508092702 17 339 1.6 1.6 0.00 0.00 0.00 99 1015.6
20260508092201 17 339 0.0 0.0 0.00 0.00 0.00 99 1015.9
20260508091658 16 330 1.6 1.6 0.00 0.00 0.00 99 1015.8
20260508091155 17 334 1.6 1.6 0.00 0.00 0.00 99 1015.7
20260508090653 16 317 0.0 0.0 0.00 0.00 0.00 99 1015.6
20260508090150 16 317 0.0 0.0 0.00 0.00 0.00 99 1015.5
20260508085645 16 316 0.0 0.0 0.00 0.00 0.00 99 1015.6
20260508085143 16 316 0.0 0.0 0.00 0.00 0.00 99 1015.5
20260508084639 16 316 0.0 0.0 0.00 0.00 0.00 99 1015.6
20260508084136 16 308 0.0 0.0 0.00 0.00 0.00 99 1015.7
20260508083634 16 328 1.6 1.6 0.00 0.00 0.00 99 1016.0
20260508083132 16 328 0.0 1.6 0.00 0.00 0.00 99 1016.0
20260508082626 16 342 0.0 1.6 0.00 0.00 0.00 99 1016.3
20260508082124 16 321 1.6 1.6 0.00 0.00 0.00 99 1016.0
20260508081621 16 335 3.2 3.2 0.00 0.00 0.00 99 1015.7
20260508081118 16 334 1.6 1.6 0.00 0.00 0.00 99 1016.0
20260508080615 16 335 1.6 1.6 0.00 0.00 0.00 99 1015.7
20260508080113 16 335 0.0 1.6 0.00 0.00 0.00 99 1015.6
20260508075609 16 335 0.0 0.0 0.00 0.00 0.00 99 1015.6
20260508075106 16 335 0.0 0.0 0.00 0.00 0.00 99 1015.4
20260508074604 16 335 0.0 0.0 0.00 0.00 0.00 99 1015.6
20260508074101 16 335 0.0 1.6 0.00 0.00 0.00 99 1015.7
20260508073558 17 335 0.0 0.0 0.00 0.00 0.00 99 1015.6
20260508073056 16 335 0.0 0.0 0.00 0.00 0.00 99 1015.7
20260508072551 17 339 0.0 0.0 0.00 0.00 0.00 99 1015.5
20260508072048 16 340 0.0 0.0 0.00 0.00 0.00 99 1015.5
20260508071547 17 344 1.6 1.6 0.00 0.00 0.00 99 1015.5
20260508071044 17 305 0.0 0.0 0.00 0.00 0.00 99 1016.0
20260508070542 17 325 3.2 3.2 0.00 0.00 0.00 99 1015.6
20260508070040 17 297 3.2 3.2 0.00 0.00 0.00 99 1015.8
20260508065537 17 334 1.6 1.6 0.00 0.00 0.00 99 1015.9
20260508065035 17 328 1.6 1.6 0.00 0.00 0.00 99 1015.8
20260508064532 17 328 0.0 0.0 0.00 0.00 0.00 99 1016.0
20260508064030 17 328 1.6 1.6 0.00 0.00 0.00 99 1016.1
20260508063527 17 330 3.2 3.2 0.00 0.00 0.00 99 1016.3
20260508063025 17 328 0.0 0.0 0.00 0.00 0.00 99 1016.3
20260508062522 17 328 1.6 3.2 0.00 0.00 0.00 99 1016.5
20260508062019 17 328 1.6 1.6 0.00 0.00 0.00 99 1016.5
20260508061517 17 326 1.6 1.6 0.00 0.00 0.00 99 1016.2
20260508061013 17 328 0.0 0.0 0.00 0.00 0.00 99 1016.1
20260508060511 17 329 0.0 0.0 0.00 0.00 0.00 99 1016.2
20260508060008 17 328 0.0 0.0 0.00 0.00 0.00 99 1016.4
20260508055504 17 328 0.0 0.0 0.00 0.00 0.00 99 1016.3
20260508055000 17 329 0.0 0.0 0.00 0.00 0.00 99 1016.3
20260508054457 17 329 0.0 0.0 0.00 0.00 0.00 99 1016.3
20260508053954 17 329 0.0 0.0 0.00 0.00 0.00 99 1016.5
20260508053451 17 329 0.0 1.6 0.00 0.00 0.00 99 1016.8
20260508052949 17 323 1.6 3.2 0.00 0.00 0.00 99 1016.6
20260508052446 17 323 0.0 1.6 0.00 0.00 0.00 99 1016.8
20260508051942 17 323 0.0 0.0 0.00 0.00 0.00 99 1016.8
20260508051438 17 339 0.0 0.0 0.00 0.00 0.00 99 1016.1
20260508050934 17 339 0.0 1.6 0.00 0.00 0.00 99 1016.6
20260508050431 17 327 1.6 1.6 0.00 0.00 0.00 99 1016.4
20260508045928 17 306 0.0 0.0 0.00 2.11 2.11 99 1016.3
20260508045425 17 306 1.6 1.6 0.00 2.11 2.11 99 1016.2
20260508044922 17 306 0.0 0.0 0.00 2.11 2.11 99 1016.3
20260508044419 17 324 1.6 1.6 0.00 2.11 2.11 99 1016.6
20260508043914 17 311 0.0 0.0 0.00 2.11 2.11 99 1016.4
20260508043412 17 357 1.6 3.2 0.00 2.11 2.11 99 1016.4
20260508042908 17 354 1.6 1.6 0.00 2.11 2.11 99 1016.7
20260508042406 17 352 3.2 3.2 0.00 2.11 2.11 99 1016.7
20260508041903 17 321 1.6 1.6 0.00 2.11 2.11 99 1016.7
20260508041400 17 320 0.0 0.0 0.00 2.11 2.11 99 1016.7
20260508040856 18 319 0.0 0.0 0.00 2.11 2.11 99 1016.8
20260508040353 18 356 3.2 3.2 0.00 2.11 2.11 99 1017.3
20260508035851 18 350 1.6 1.6 0.00 2.11 2.11 99 1017.0
20260508035348 18 332 1.6 1.6 0.00 2.11 2.11 99 1016.6
20260508034845 18 338 3.2 3.2 0.00 2.11 2.11 99 1016.8
20260508034342 18 330 3.2 3.2 0.00 2.11 2.11 99 1017.2
20260508033838 18 331 3.2 3.2 0.00 2.11 2.11 99 1016.7
20260508033337 18 334 3.2 3.2 0.00 2.11 2.11 99 1016.9
20260508032834 18 352 4.8 4.8 0.00 2.11 2.11 99 1016.8
20260508032331 18 343 1.6 3.2 0.00 2.11 2.11 99 1017.0
20260508031828 18 348 1.6 3.2 0.00 2.11 2.11 99 1017.1
20260508031324 18 337 1.6 1.6 0.00 2.11 2.11 99 1016.8
20260508030821 18 330 3.2 3.2 0.00 2.11 2.11 99 1016.9
20260508030318 18 329 1.6 1.6 0.00 2.11 2.11 99 1017.0
20260508025814 18 346 0.0 1.6 0.00 2.11 2.11 99 1016.8
20260508025312 18 326 0.0 0.0 0.00 2.11 2.11 99 1016.5
20260508024808 18 323 1.6 1.6 0.00 2.11 2.11 99 1016.5
20260508024305 18 323 1.6 1.6 0.00 2.11 2.11 99 1016.8
20260508023802 18 321 1.6 1.6 0.00 2.11 2.11 99 1016.8
20260508023259 18 314 1.6 1.6 0.00 2.11 2.11 99 1016.7
20260508022755 19 308 0.0 0.0 0.00 2.11 2.11 99 1016.5
20260508022251 19 350 0.0 0.0 0.00 2.11 2.11 99 1016.5
20260508021749 19 312 1.6 3.2 0.00 2.11 2.11 99 1016.9
20260508021243 19 346 3.2 3.2 0.00 2.11 2.11 99 1016.6
20260508020741 19 321 1.6 3.2 0.00 2.11 2.11 99 1016.5
20260508020238 19 357 3.2 3.2 0.00 2.11 2.11 99 1016.7
20260508015735 19 350 1.6 1.6 0.00 2.11 2.11 99 1016.6
20260508015232 20 322 3.2 3.2 0.00 2.11 2.11 99 1016.4
20260508014729 20 340 1.6 1.6 0.00 2.11 2.11 98 1016.2
20260508014226 20 327 3.2 4.8 0.00 2.11 2.11 98 1016.3
20260508013722 20 341 6.4 8.0 0.00 2.11 2.11 99 1016.3
20260508013218 20 355 3.2 4.8 0.00 2.11 2.11 99 1016.2
20260508012716 20 333 1.6 1.6 0.00 2.11 2.11 98 1015.8
20260508012213 20 8 6.4 8.0 0.00 2.11 2.11 98 1015.9
20260508011711 20 319 1.6 1.6 0.00 2.11 2.11 98 1015.9
20260508011209 20 320 3.2 3.2 0.00 2.11 2.11 98 1015.7
20260508010705 20 333 0.0 0.0 0.00 2.11 2.11 98 1015.5
20260508010203 20 338 1.6 1.6 0.00 2.11 2.11 97 1015.6
20260508005700 20 354 0.0 1.6 0.00 2.11 2.11 97 1015.3
20260508005156 20 336 1.6 1.6 0.00 2.11 2.11 97 1015.4
20260508004652 20 325 1.6 1.6 0.00 2.11 2.11 96 1015.3
20260508004149 20 333 1.6 1.6 0.00 2.11 2.11 96 1015.4
20260508003646 21 3 3.2 4.8 0.00 2.11 2.11 95 1015.3
20260508003143 21 338 4.8 4.8 0.00 2.11 2.11 95 1015.5
20260508002639 21 333 8.0 11.3 0.00 2.11 2.11 95 1015.3
20260508002137 21 34 8.0 9.7 0.00 2.11 2.11 95 1015.2
20260508001632 21 3 1.6 3.2 0.00 2.11 2.11 95 1015.2
20260508001128 21 346 1.6 3.2 0.00 2.11 2.11 94 1015.4
20260508000624 21 332 3.2 3.2 0.00 2.11 2.11 94 1015.2
20260508000122 21 315 4.8 8.0 0.00 2.11 2.11 94 1015.0
20260507235619 22 337 8.0 9.7 0.00 2.11 2.11 94 1015.2
20260507235116 22 327 9.7 12.9 0.00 2.11 2.11 94 1015.3
20260507234612 22 334 8.0 11.3 0.00 2.11 2.11 94 1014.9
20260507234109 22 306 4.8 4.8 0.00 2.11 2.11 93 1015.1
20260507233606 22 327 6.4 8.0 0.00 2.11 2.11 93 1015.1
20260507233104 22 4 3.2 8.0 0.00 2.11 2.11 93 1015.0
20260507232600 22 351 1.6 3.2 0.00 2.11 2.11 93 1015.2
20260507232058 22 337 1.6 1.6 0.00 2.11 2.11 94 1015.4
20260507231554 22 358 4.8 4.8 0.00 2.11 2.11 93 1015.3
20260507231051 22 21 4.8 4.8 0.00 2.11 2.11 92 1015.4
20260507230548 22 320 1.6 3.2 0.00 2.11 2.11 92 1015.3
20260507230044 22 358 1.6 3.2 0.00 2.11 2.11 93 1015.3
20260507225539 22 335 8.0 11.3 0.00 2.11 2.11 93 1015.4
20260507225036 22 359 8.0 11.3 0.00 2.11 2.11 92 1015.1
20260507224532 22 353 6.4 9.7 0.00 2.11 2.11 92 1015.0
20260507224028 22 354 3.2 4.8 0.00 2.11 2.11 92 1015.1
20260507223525 22 346 3.2 3.2 0.00 2.11 2.11 92 1015.3
20260507223022 22 327 6.4 9.7 0.00 2.11 2.11 91 1015.0
20260507222519 23 325 1.6 1.6 0.00 2.11 2.11 92 1015.1
20260507222015 22 343 9.7 11.3 0.00 2.11 2.11 92 1015.1
20260507221512 22 339 1.6 1.6 0.00 2.11 2.11 92 1015.0
20260507221009 22 343 1.6 1.6 0.00 2.11 2.11 91 1015.1
20260507220506 23 357 3.2 4.8 0.00 2.11 2.11 92 1015.0
20260507220003 22 328 4.8 4.8 0.00 2.11 2.11 92 1014.9
20260507215459 22 333 9.7 12.9 0.00 2.11 2.11 92 1014.7
20260507214957 22 331 6.4 8.0 0.00 2.11 2.11 91 1014.9
20260507214454 23 327 1.6 1.6 0.00 2.11 2.11 91 1014.7
20260507213949 22 305 1.6 1.6 0.00 2.11 2.11 92 1014.8
20260507213446 23 328 0.0 0.0 0.00 2.11 2.11 92 1014.8
20260507212943 23 339 3.2 3.2 0.00 2.11 2.11 91 1014.9
20260507212438 23 319 1.6 1.6 0.00 2.11 2.11 92 1015.0
20260507211936 23 342 1.6 1.6 0.00 2.11 2.11 90 1014.7
20260507211432 23 334 3.2 3.2 0.00 2.11 2.11 91 1014.7
20260507210929 23 17 3.2 3.2 0.00 2.11 2.11 91 1015.0
20260507210426 22 320 8.0 11.3 0.00 2.11 2.11 91 1015.0
20260507205923 23 180 4.8 4.8 0.00 2.11 2.11 91 1014.9
20260507205420 23 323 1.6 3.2 0.00 2.11 2.11 91 1014.9
20260507204916 23 359 4.8 4.8 0.00 2.11 2.11 91 1015.1
20260507204413 23 13 4.8 8.0 0.00 2.11 2.11 91 1015.1
20260507203910 23 337 6.4 8.0 0.00 2.11 2.11 91 1015.1
20260507203408 23 355 4.8 8.0 0.00 2.11 2.11 91 1014.8
20260507202904 23 317 3.2 3.2 0.00 2.11 2.11 91 1015.0
20260507202401 23 331 3.2 3.2 0.00 2.11 2.11 91 1014.8
20260507201856 23 326 3.2 3.2 0.00 2.11 2.11 91 1015.2
20260507201352 23 41 4.8 4.8 0.00 2.11 2.11 90 1015.1
20260507200849 23 355 3.2 3.2 0.00 2.11 2.11 90 1015.1
20260507200345 23 331 1.6 1.6 0.00 2.11 2.11 92 1015.1
20260507195841 23 355 4.8 8.0 0.00 2.11 2.11 92 1014.9
20260507195338 23 331 3.2 3.2 0.00 2.11 2.11 91 1015.1
20260507194835 23 19 3.2 4.8 0.00 2.11 2.11 90 1015.0
20260507194332 24 6 3.2 3.2 0.00 2.11 2.11 90 1014.8
20260507193828 24 291 1.6 1.6 0.00 2.11 2.11 89 1014.8
20260507193326 23 357 4.8 4.8 0.00 2.11 2.11 90 1014.8
20260507192821 23 281 3.2 4.8 0.00 2.11 2.11 91 1015.1
20260507192318 23 5 1.6 3.2 0.00 2.11 2.11 91 1015.1
20260507191814 23 346 1.6 3.2 0.00 2.11 2.11 92 1015.0
20260507191311 24 305 1.6 3.2 0.00 2.11 2.11 91 1015.0
20260507190808 23 332 4.8 8.0 0.00 2.11 2.11 91 1015.2
20260507190306 23 348 3.2 4.8 0.00 2.11 2.11 92 1015.2
20260507185805 23 331 3.2 3.2 0.00 2.11 2.11 92 1015.3
20260507185301 23 311 3.2 3.2 0.00 2.11 2.11 92 1015.2
20260507184758 23 42 1.6 1.6 0.00 2.11 2.11 94 1015.0
20260507184257 23 352 0.0 1.6 0.00 2.11 2.11 92 1015.0
20260507183753 23 342 1.6 1.6 0.00 2.11 2.11 92 1015.2
20260507183250 23 331 1.6 3.2 0.00 2.11 2.11 93 1015.3
20260507182747 23 345 3.2 4.8 0.00 2.11 2.11 93 1015.6
20260507182242 22 328 4.8 8.0 0.00 2.11 2.11 94 1015.7
20260507181739 22 341 6.4 9.7 0.00 2.11 2.11 94 1015.5
20260507181236 23 0 4.8 8.0 0.00 2.11 2.11 95 1015.7
20260507180732 22 297 6.4 9.7 0.00 2.11 2.11 95 1015.5
20260507180229 22 285 0.0 0.0 0.00 2.11 2.11 98 1015.6
20260507175724 21 324 1.6 1.6 0.00 2.11 2.11 99 1015.5
20260507175222 21 318 0.0 1.6 0.00 2.11 2.11 99 1015.4
20260507174720 20 335 4.8 4.8 0.00 2.11 2.11 99 1015.6
20260507174217 20 204 0.0 1.6 0.00 2.11 2.11 99 1015.6
20260507173715 20 174 0.0 0.0 0.00 2.11 2.11 99 1015.8
20260507173211 20 291 0.0 1.6 0.00 2.11 2.11 99 1015.9
20260507172708 20 279 1.6 1.6 0.00 2.11 2.11 99 1015.8
20260507172205 20 350 3.2 3.2 0.00 2.11 2.11 99 1015.9
20260507171704 20 332 4.8 4.8 0.00 2.11 2.11 99 1015.9
20260507171202 20 342 4.8 9.7 0.00 2.11 2.11 99 1015.9
20260507170659 20 24 4.8 4.8 0.00 2.11 2.11 99 1016.1
20260507170156 20 4 4.8 4.8 0.00 2.11 2.11 99 1016.2
20260507165652 20 353 4.8 4.8 0.00 2.11 2.11 99 1016.4
20260507165148 20 316 4.8 4.8 0.00 2.11 2.11 99 1016.3
20260507164644 20 325 0.0 0.0 0.00 2.11 2.11 99 1016.3
20260507164141 20 347 1.6 1.6 0.00 2.11 2.11 99 1016.5
20260507163638 20 18 1.6 3.2 0.00 2.11 2.11 99 1016.5
20260507163137 20 342 4.8 8.0 0.00 2.11 2.11 99 1016.4
20260507162632 20 317 6.4 8.0 0.00 2.11 2.11 99 1016.6
20260507162128 20 356 4.8 8.0 0.00 2.11 2.11 99 1016.6
20260507161625 20 337 3.2 3.2 0.00 2.11 2.11 99 1016.5
20260507161121 20 25 1.6 3.2 0.00 2.11 2.11 99 1016.4
20260507160618 20 331 4.8 9.7 0.00 2.11 2.11 99 1016.2
20260507160114 20 325 1.6 3.2 0.00 2.11 2.11 99 1016.2
20260507155609 20 349 4.8 8.0 0.00 2.11 2.11 99 1016.0
20260507155107 20 345 3.2 3.2 0.00 2.11 2.11 99 1015.9
20260507154604 20 20 1.6 3.2 0.00 2.11 2.11 99 1015.8
20260507154101 20 355 4.8 4.8 0.00 2.11 2.11 99 1015.9
20260507153557 20 353 0.0 1.6 0.18 2.11 2.11 99 1015.9
20260507153054 20 345 1.6 1.6 0.18 2.11 2.11 99 1015.9
20260507152550 20 324 4.8 4.8 0.00 2.08 2.08 99 1016.0